CW3518 Weather Reports


time (UTC)temp
F
wind
direction
speed
knots
gust
knots
rain 1hr
in
rain 24hr
in
rain mn
in
humidity
%
barometer
mb
20260509172526 80 17 7.8 11.3 0.00 0.00 0.00 60 1011.0
20260509172025 81 17 1.7 8.7 0.00 0.00 0.00 59 1011.1
20260509171025 80 359 11.3 11.3 0.00 0.00 0.00 59 1011.1
20260509170525 80 54 3.5 8.7 0.00 0.00 0.00 60 1011.2
20260509170025 80 272 3.5 8.7 0.00 0.00 0.00 61 1011.2
20260509165525 80 330 3.5 9.6 0.00 0.00 0.00 60 1011.2
20260509165025 79 24 5.2 9.6 0.00 0.00 0.00 61 1011.3
20260509164525 80 353 9.6 9.6 0.00 0.00 0.00 60 1011.3
20260509164025 80 345 3.5 8.7 0.00 0.00 0.00 59 1011.4
20260509163525 79 328 4.3 8.7 0.00 0.00 0.00 61 1011.4
20260509163025 80 7 6.1 8.7 0.00 0.00 0.00 58 1011.4
20260509162525 79 346 4.3 9.6 0.00 0.00 0.00 59 1011.4
20260509162025 79 356 4.3 9.6 0.00 0.00 0.00 61 1011.4
20260509161525 79 351 7.8 9.6 0.00 0.00 0.00 59 1011.4
20260509160525 78 275 4.3 8.7 0.00 0.00 0.00 61 1011.5
20260509155526 78 328 6.1 7.8 0.00 0.00 0.00 62 1011.4
20260509155025 78 287 6.1 7.8 0.00 0.00 0.00 62 1011.4
20260509154527 78 310 6.1 11.3 0.00 0.00 0.00 63 1011.3
20260509153526 77 270 7.8 9.6 0.00 0.00 0.00 63 1011.3
20260509153026 77 281 7.8 9.6 0.00 0.00 0.00 65 1011.2
20260509152526 77 299 3.5 7.8 0.00 0.00 0.00 65 1011.3
20260509152026 76 294 3.5 8.7 0.00 0.00 0.00 66 1011.3
20260509151526 76 290 3.5 8.7 0.00 0.00 0.00 67 1011.3
20260509151025 76 300 8.7 8.7 0.00 0.00 0.00 69 1011.3
20260509150525 76 272 5.2 8.7 0.00 0.00 0.00 67 1011.3
20260509150025 76 295 7.8 8.7 0.00 0.00 0.00 68 1011.4
20260509145526 76 300 5.2 8.7 0.00 0.00 0.00 69 1011.4
20260509145026 75 313 7.0 8.7 0.00 0.00 0.00 69 1011.4
20260509144526 75 317 5.2 8.7 0.00 0.00 0.00 72 1011.4
20260509144025 75 307 7.8 9.6 0.00 0.00 0.00 72 1011.3
20260509143525 75 309 7.0 9.6 0.00 0.00 0.00 72 1011.3
20260509143026 75 322 7.0 8.7 0.00 0.00 0.00 73 1011.3
20260509142525 75 308 5.2 9.6 0.00 0.00 0.00 74 1011.3
20260509141525 75 297 7.0 8.7 0.00 0.00 0.00 74 1011.3
20260509140025 73 303 7.0 8.7 0.00 0.00 0.00 78 1011.3
20260509135526 73 304 6.1 8.7 0.00 0.00 0.00 81 1011.3
20260509134526 71 301 4.3 7.0 0.00 0.00 0.00 86 1011.4
20260509134025 71 289 6.1 7.0 0.00 0.00 0.00 87 1011.4
20260509133526 71 306 6.1 7.0 0.00 0.00 0.00 88 1011.4
20260509133025 70 333 7.0 7.0 0.00 0.00 0.00 87 1011.4
20260509132525 70 324 6.1 7.8 0.00 0.00 0.00 88 1011.4
20260509132027 69 332 6.1 7.8 0.00 0.00 0.00 88 1011.3
20260509131525 69 340 4.3 7.0 0.00 0.00 0.00 88 1011.3
20260509131025 69 340 6.1 7.0 0.00 0.00 0.00 88 1011.3
20260509130525 69 349 6.1 6.1 0.00 0.00 0.00 89 1011.3
20260509130026 68 340 4.3 7.8 0.00 0.00 0.00 90 1011.3
20260509125527 68 340 4.3 7.8 0.00 0.00 0.00 91 1011.3
20260509125025 67 346 5.2 6.1 0.00 0.00 0.00 91 1011.2
20260509124526 67 337 4.3 5.2 0.00 0.00 0.00 92 1011.3
20260509124026 67 321 4.3 6.1 0.00 0.00 0.00 93 1011.3
20260509123525 66 334 4.3 6.1 0.00 0.00 0.00 94 1011.2
20260509122526 66 274 4.3 6.1 0.00 0.00 0.00 96 1011.2
20260509121026 66 287 3.5 5.2 0.00 0.00 0.00 97 1011.2
20260509120026 66 338 2.6 6.1 0.00 0.00 0.00 97 1011.1
20260509115525 66 279 4.3 6.1 0.00 0.00 0.00 98 1011.1
20260509115025 66 281 5.2 7.8 0.00 0.00 0.00 98 1011.0
20260509114526 67 293 4.3 7.8 0.00 0.05 0.00 98 1011.0
20260509114025 67 291 5.2 6.1 0.00 0.10 0.00 98 1010.9
20260509113025 67 273 5.2 7.8 0.00 0.21 0.00 98 1010.7
20260509112526 66 282 6.1 7.0 0.00 0.30 0.00 99 1010.7
20260509112026 66 294 6.1 7.0 0.00 0.35 0.00 99 1010.7
20260509111526 66 264 5.2 7.8 0.00 0.36 0.00 99 1010.7
20260509111025 66 261 6.1 7.8 0.00 0.36 0.00 98 1010.5
20260509110525 66 268 7.0 7.8 0.00 0.36 0.00 98 1010.4
20260509110025 66 260 7.0 7.0 0.00 0.36 0.00 98 1010.3
20260509105526 66 359 2.6 7.8 0.00 0.36 0.00 98 1010.0
20260509105026 66 5 6.1 8.7 0.00 0.36 0.00 97 1009.8
20260509104527 67 21 7.0 9.6 0.00 0.36 0.00 97 1009.8
20260509104025 67 15 8.7 9.6 0.00 0.36 0.00 97 1009.8
20260509103526 67 15 8.7 9.6 0.00 0.36 0.00 97 1009.9
20260509103026 67 1 8.7 9.6 0.00 0.36 0.00 98 1009.9
20260509102525 67 18 7.8 9.6 0.00 0.36 0.00 98 1009.8
20260509102025 67 8 6.1 7.8 0.00 0.36 0.00 98 1009.9
20260509101526 67 9 4.3 6.1 0.00 0.36 0.00 98 1010.0
20260509101026 67 15 4.3 7.8 0.00 0.36 0.00 98 1010.0
20260509100526 67 21 4.3 7.8 0.00 0.36 0.00 98 1009.7
20260509100025 67 1 7.0 9.6 0.00 0.36 0.00 98 1009.5
20260509095525 67 12 8.7 9.6 0.00 0.36 0.00 98 1009.2
20260509095026 67 6 8.7 10.4 0.00 0.36 0.00 97 1009.1
20260509094526 67 4 6.1 10.4 0.00 0.42 0.00 97 1009.0
20260509094026 67 11 8.7 10.4 0.00 0.42 0.00 97 1009.0
20260509093525 67 7 7.8 9.6 0.00 0.42 0.00 97 1008.9
20260509093025 67 10 7.0 9.6 0.00 0.42 0.00 96 1008.7
20260509091526 68 8 7.0 11.3 0.00 0.42 0.00 95 1008.7
20260509091026 68 25 7.8 12.2 0.00 0.42 0.00 95 1008.5
20260509090526 68 28 8.7 14.8 0.00 0.42 0.00 95 1008.4
20260509090026 68 26 10.4 18.2 0.00 0.42 0.00 94 1008.5
20260509085526 68 38 13.0 18.2 0.00 0.42 0.00 94 1008.4
20260509085027 68 38 13.0 16.5 0.00 0.42 0.00 94 1008.5
20260509084525 68 34 13.0 20.0 0.00 0.42 0.00 94 1008.5
20260509084026 68 30 13.9 20.0 0.00 0.42 0.00 94 1008.5
20260509083525 68 30 16.5 20.0 0.00 0.42 0.00 94 1008.4
20260509083025 69 32 18.2 21.7 0.00 0.42 0.00 92 1008.3
20260509081525 71 342 12.2 19.1 0.00 0.42 0.00 78 1008.1
20260509081026 72 341 10.4 20.9 0.00 0.42 0.00 76 1008.0
20260509080526 71 330 17.4 20.9 0.00 0.42 0.00 74 1008.1
20260509080026 69 329 14.8 16.5 0.00 0.42 0.00 85 1008.1
20260509075026 70 230 7.0 17.4 0.00 0.42 0.00 90 1007.1
20260509074526 70 216 13.0 17.4 0.00 0.42 0.00 89 1007.1
20260509074026 70 222 13.0 17.4 0.00 0.42 0.00 89 1007.2
20260509073026 71 210 13.9 25.2 0.00 0.42 0.00 87 1007.5
20260509072526 70 218 22.6 25.2 0.00 0.42 0.00 87 1007.1
20260509072025 69 205 20.0 25.2 0.00 0.42 0.00 92 1007.6
20260509071526 69 219 20.0 20.0 0.00 0.42 0.00 93 1008.2
20260509071026 69 220 11.3 19.1 0.00 0.42 0.00 94 1008.6
20260509065526 69 224 16.5 20.9 0.00 0.42 0.00 93 1009.1
20260509064026 69 230 17.4 20.0 0.00 0.42 0.00 94 1009.4
20260509062526 68 234 12.2 14.8 0.00 0.42 0.00 95 1010.1
20260509062026 67 225 13.9 13.9 0.00 0.42 0.00 96 1010.3
20260509061526 67 240 10.4 13.9 0.00 0.42 0.00 96 1010.7
20260509061026 67 234 10.4 12.2 0.00 0.42 0.00 96 1010.9
20260509060026 67 238 7.8 13.9 0.00 0.42 0.00 96 1011.0
20260509055526 67 245 10.4 13.9 0.00 0.42 0.00 96 1010.9
20260509055026 67 226 11.3 11.3 0.00 0.42 0.00 96 1010.8
20260509054527 67 231 8.7 10.4 0.00 0.42 0.00 96 1010.8
20260509054026 67 250 7.8 8.7 0.00 0.42 0.00 96 1011.0
20260509053525 67 247 6.1 8.7 0.00 0.42 0.00 95 1010.7
20260509053026 67 222 7.0 7.8 0.00 0.42 0.00 95 1010.7
20260509052526 67 242 5.2 7.8 0.00 0.42 0.00 94 1010.8
20260509052025 68 219 7.0 8.7 0.00 0.42 0.00 94 1010.6
20260509051526 67 221 6.1 8.7 0.00 0.42 0.00 94 1010.7
20260509051026 68 230 7.8 8.7 0.00 0.42 0.00 93 1011.0
20260509050526 68 203 4.3 7.0 0.00 0.42 0.00 93 1010.9
20260509050026 68 208 6.1 6.1 0.00 0.42 0.00 93 1010.9
20260509045526 68 180 3.5 4.3 0.00 0.42 0.42 92 1011.0
20260509045026 69 230 3.5 3.5 0.00 0.42 0.42 91 1011.6
20260509044526 68 272 0.9 7.0 0.00 0.42 0.42 91 1012.0
20260509043526 68 4 7.8 11.3 0.00 0.42 0.42 91 1012.4
20260509043026 68 337 6.1 17.4 0.00 0.42 0.42 92 1012.4
20260509042526 68 336 11.3 19.1 0.00 0.42 0.42 92 1012.6
20260509042026 67 334 17.4 19.1 0.00 0.42 0.42 92 1012.5
20260509041526 68 340 13.0 13.0 0.00 0.42 0.42 91 1012.0
20260509041027 68 8 2.6 5.2 0.00 0.42 0.42 92 1010.9
20260509040026 69 56 3.5 4.3 0.00 0.42 0.42 91 1010.9
20260509035526 69 53 2.6 4.3 0.00 0.42 0.42 90 1010.6
20260509035026 69 122 3.5 4.3 0.00 0.42 0.42 90 1010.3
20260509034526 69 182 3.5 6.1 0.00 0.42 0.42 90 1010.1
20260509034026 69 127 4.3 7.0 0.00 0.42 0.42 90 1010.1
20260509033526 69 136 4.3 7.8 0.00 0.42 0.42 90 1009.9
20260509033026 69 150 7.0 9.6 0.00 0.42 0.42 89 1009.8
20260509032526 69 127 7.8 9.6 0.00 0.42 0.42 89 1009.9
20260509031526 69 0 0.0 10.4 0.00 0.42 0.42 89 1009.7
20260509025526 70 106 10.4 12.2 0.00 0.42 0.42 87 1010.0
20260509024526 70 98 9.6 12.2 0.00 0.42 0.42 88 1010.3
20260509024026 69 77 7.0 12.2 0.00 0.42 0.42 88 1010.4
20260509023526 69 43 10.4 12.2 0.00 0.42 0.42 89 1010.4
20260509023026 69 48 7.8 9.6 0.00 0.42 0.42 90 1010.4
20260509022527 69 38 7.0 9.6 0.00 0.42 0.42 90 1010.3
20260509022026 69 39 7.0 9.6 0.00 0.42 0.42 90 1010.0
20260509021526 69 39 6.1 9.6 0.00 0.42 0.42 88 1009.6
20260509021026 69 97 7.8 9.6 0.00 0.42 0.42 88 1008.9
20260509020526 70 116 7.8 9.6 0.00 0.42 0.42 87 1008.6
20260509020026 70 136 7.8 9.6 0.00 0.42 0.42 87 1008.4
20260509015527 70 0 0.0 10.4 0.00 0.42 0.42 86 1008.1
20260509015026 70 0 0.0 10.4 0.00 0.42 0.42 86 1008.0
20260509014526 70 146 9.6 10.4 0.00 0.42 0.42 85 1008.0
20260509014026 70 136 8.7 10.4 0.00 0.42 0.42 84 1008.1
20260509013526 71 157 7.8 10.4 0.00 0.42 0.42 83 1008.1
20260509013026 71 0 0.0 9.6 0.00 0.42 0.42 83 1008.1
20260509012026 71 181 7.8 9.6 0.00 0.42 0.42 81 1008.1
20260509011526 72 188 8.7 9.6 0.00 0.42 0.42 80 1008.3
20260509011026 72 178 7.8 9.6 0.00 0.42 0.42 80 1008.5
20260509010526 72 167 4.3 9.6 0.00 0.42 0.42 79 1008.5
20260509010026 73 166 5.2 7.8 0.00 0.42 0.42 79 1008.5
20260509005526 73 178 4.3 7.8 0.00 0.42 0.42 79 1008.6
20260509004526 73 197 7.8 8.7 0.00 0.42 0.42 78 1008.7
20260509003526 73 200 6.1 9.6 0.00 0.42 0.42 77 1008.6
20260509003026 73 173 9.6 9.6 0.00 0.42 0.42 76 1008.5
20260509002526 74 170 7.0 9.6 0.00 0.42 0.42 75 1008.4
20260509002026 74 172 7.0 9.6 0.00 0.42 0.42 75 1008.4
20260509001526 74 170 7.0 9.6 0.00 0.42 0.42 74 1008.4
20260509001027 74 197 8.7 9.6 0.00 0.42 0.42 74 1008.3
20260509000526 74 195 7.8 9.6 0.00 0.42 0.42 73 1008.2
20260509000026 75 157 9.6 10.4 0.00 0.42 0.42 72 1008.1
20260508235026 75 177 10.4 12.2 0.00 0.42 0.42 71 1008.0
20260508234526 75 180 9.6 12.2 0.00 0.42 0.42 70 1008.0
20260508234026 75 188 9.6 12.2 0.00 0.42 0.42 69 1008.0
20260508233526 75 179 8.7 12.2 0.00 0.42 0.42 69 1008.2
20260508232526 75 160 7.0 11.3 0.00 0.42 0.42 69 1008.3
20260508232027 76 175 9.6 11.3 0.00 0.42 0.42 68 1008.4
20260508231526 76 171 9.6 11.3 0.00 0.42 0.42 67 1008.4
20260508231026 76 143 6.1 10.4 0.00 0.42 0.42 68 1008.4
20260508230526 76 203 7.0 10.4 0.00 0.42 0.42 68 1008.4
20260508230026 76 201 8.7 10.4 0.00 0.42 0.42 68 1008.5
20260508225526 76 169 6.1 11.3 0.00 0.42 0.42 67 1008.5
20260508225026 76 188 8.7 11.3 0.00 0.42 0.42 68 1008.5
20260508224526 76 191 7.8 11.3 0.00 0.42 0.42 68 1008.5
20260508224026 76 169 5.2 11.3 0.00 0.42 0.42 68 1008.5
20260508223026 77 184 6.1 11.3 0.00 0.42 0.42 69 1008.6
20260508222526 76 169 9.6 11.3 0.00 0.42 0.42 68 1008.5
20260508222026 76 174 7.8 10.4 0.00 0.42 0.42 67 1008.5
20260508221527 77 166 9.6 11.3 0.00 0.42 0.42 66 1008.5
20260508220526 77 164 7.8 10.4 0.00 0.42 0.42 66 1008.6
20260508220026 77 176 7.8 10.4 0.00 0.42 0.42 66 1008.5
20260508215528 77 202 9.6 11.3 0.00 0.42 0.42 67 1008.6
20260508215026 77 177 10.4 11.3 0.00 0.42 0.42 65 1008.5
20260508214527 77 149 9.6 10.4 0.00 0.42 0.42 65 1008.6
20260508213526 77 155 8.7 11.3 0.00 0.42 0.42 65 1008.7
20260508213026 76 143 8.7 11.3 0.00 0.42 0.42 66 1008.8
20260508212526 76 175 7.8 11.3 0.00 0.42 0.42 65 1008.9
20260508212027 76 159 9.6 11.3 0.00 0.42 0.42 65 1008.9
20260508211026 76 166 7.8 11.3 0.00 0.42 0.42 66 1008.9
20260508210526 76 154 9.6 10.4 0.00 0.42 0.42 65 1009.0
20260508210026 76 213 6.1 11.3 0.00 0.42 0.42 66 1009.0
20260508205527 75 172 9.6 12.2 0.00 0.42 0.42 65 1009.1
20260508205026 76 195 7.8 12.2 0.00 0.42 0.42 67 1009.2
20260508204526 76 179 8.7 15.6 0.00 0.42 0.42 65 1009.4
20260508204026 75 217 11.3 16.5 0.00 0.42 0.42 67 1009.6
20260508203526 75 214 12.2 16.5 0.00 0.42 0.42 67 1009.5
20260508203026 75 219 13.9 15.6 0.00 0.42 0.42 67 1009.7
20260508202526 75 193 10.4 15.6 0.00 0.42 0.42 67 1009.9
20260508202026 75 197 12.2 13.9 0.00 0.42 0.42 67 1009.8
20260508201526 76 203 13.0 13.0 0.00 0.42 0.42 67 1010.0
20260508201027 76 0 0.0 12.2 0.00 0.42 0.42 67 1010.2
20260508200026 76 213 12.2 12.2 0.00 0.42 0.42 64 1010.4
20260508195527 76 160 7.0 9.6 0.00 0.42 0.42 65 1010.3
20260508195026 76 0 0.0 9.6 0.00 0.42 0.42 65 1010.4
20260508194527 75 155 7.8 8.7 0.00 0.42 0.42 66 1010.5
20260508194027 74 194 6.1 9.6 0.00 0.42 0.42 67 1010.7
20260508193526 74 172 7.8 9.6 0.00 0.42 0.42 67 1010.8
20260508193026 74 146 7.8 9.6 0.00 0.42 0.42 68 1010.9
20260508192527 75 202 6.1 12.2 0.00 0.42 0.42 69 1010.9
20260508192026 75 205 7.0 13.0 0.00 0.42 0.42 69 1010.9
20260508191527 75 217 9.6 13.0 0.00 0.42 0.42 67 1010.9
20260508191026 75 223 6.1 12.2 0.00 0.42 0.42 65 1010.9
20260508190526 75 228 7.8 9.6 0.00 0.42 0.42 65 1010.9
20260508190027 75 178 7.8 9.6 0.00 0.42 0.42 64 1010.9
20260508185526 75 180 8.7 11.3 0.00 0.42 0.42 66 1010.9
20260508185026 75 202 7.0 12.2 0.00 0.42 0.42 66 1011.1
20260508184526 75 156 8.7 12.2 0.00 0.42 0.42 65 1011.1
20260508184026 75 0 0.0 9.6 0.00 0.42 0.42 66 1011.2
20260508183527 75 139 3.5 9.6 0.00 0.42 0.42 65 1011.2
20260508183026 75 0 0.0 9.6 0.00 0.42 0.42 64 1011.1
20260508182526 74 133 7.8 10.4 0.00 0.42 0.42 67 1011.2
20260508182026 74 0 0.0 10.4 0.00 0.42 0.42 65 1011.3
20260508181526 74 0 0.0 11.3 0.00 0.42 0.42 65 1011.4
20260508180026 73 168 6.1 8.7 0.00 0.42 0.42 67 1011.8
20260508175526 73 212 7.8 8.7 0.00 0.42 0.42 67 1012.0
20260508175026 72 239 5.2 11.3 0.00 0.42 0.42 68 1012.0
20260508174526 72 161 4.3 11.3 0.00 0.42 0.42 68 1012.1
20260508174026 72 133 8.7 8.7 0.00 0.42 0.42 68 1012.3
20260508173527 72 220 7.8 8.7 0.00 0.42 0.42 69 1012.4